Date String (YYYY-MM-DD hh:mm:ss) UTC,Instrument flags,Ambient pressure (hPa),Sample flow (lpm),Bypass flow (lpm),Sample temperature (°C),Ambient temperature (°C),ASC tube jacket temperature (°C),LED temperature (°C),Box temperature (°C),Sample RH (%),Span deviation,Mass concentration (μg/m³),Mass concentration (μg/m³),Mass concentration (μg/m³)
DateTimeUTC,F1_M11,P_M11,Q1_M11,Q2_M11,T1_M11,T2_M11,T3_M11,T4_M11,T5_M11,U1_M11,ZSPAN_M11,X0_M11,X2_M11,X1_M11
2022-02-11 11:00:00,,0820.7,5.01,0.00,21.9,21.0,00.0,30.9,23.5,09.5,0000.0,0001.50,0001.02,0000.77
2022-02-11 11:01:00,,0820.6,5.00,0.00,21.9,21.2,00.0,31.0,23.6,09.6,0000.0,0001.46,0000.99,0000.76
2022-02-11 11:02:00,,0820.6,5.01,0.00,22.0,22.1,00.0,31.0,23.9,09.4,0000.0,0001.42,0000.98,0000.75
2022-02-11 11:03:00,,0820.5,4.99,0.00,22.2,23.0,00.0,31.1,24.2,09.3,0000.0,0001.35,0000.95,0000.75
2022-02-11 11:04:00,,0820.5,5.00,0.00,22.3,23.1,00.0,31.1,24.4,09.2,0000.0,0001.22,0000.92,0000.74
2022-02-11 11:05:00,,0820.6,5.00,0.00,22.3,22.9,00.0,31.1,24.4,09.3,0000.0,0001.26,0000.95,0000.74
2022-02-11 11:06:00,,0820.8,5.01,0.00,22.3,22.6,00.0,31.2,24.3,09.5,0000.0,0001.25,0000.94,0000.74
2022-02-11 11:07:00,,0820.9,5.01,0.00,22.3,22.4,00.0,31.2,24.2,09.6,0000.0,0001.22,0000.91,0000.74
2022-02-11 11:08:00,,0820.8,4.99,0.00,22.3,22.2,00.0,31.2,24.2,09.4,0000.0,0001.26,0000.92,0000.73
2022-02-11 11:09:00,,0820.8,5.00,0.00,22.3,22.1,00.0,31.2,24.2,09.3,0000.0,0001.17,0000.88,0000.71
2022-02-11 11:10:00,,0820.8,5.00,0.00,22.3,22.0,00.0,31.2,24.1,09.2,0000.0,0001.13,0000.86,0000.71
2022-02-11 11:11:00,,0820.8,4.99,0.00,22.3,21.9,00.0,31.2,24.1,09.3,0000.0,0001.12,0000.85,0000.70
2022-02-11 11:12:00,,0820.8,5.01,0.00,22.3,21.8,00.0,31.2,24.1,09.4,0000.0,0001.19,0000.87,0000.71
2022-02-11 11:13:00,,0820.8,4.99,0.00,22.3,21.8,00.0,31.2,24.1,09.5,0000.0,0001.34,0000.90,0000.71
2022-02-11 11:14:00,,0820.9,5.02,0.00,22.3,21.7,00.0,31.2,24.0,09.6,0000.0,0001.48,0000.94,0000.71
2022-02-11 11:15:00,,0820.9,4.99,0.00,22.3,21.6,00.0,31.2,24.0,09.3,0000.0,0001.55,0000.97,0000.72
2022-02-11 11:16:00,,0821.0,5.00,0.00,22.3,21.6,00.0,31.2,24.0,09.2,0000.0,0001.55,0000.96,0000.72
2022-02-11 11:17:00,,0821.0,5.00,0.00,22.3,21.6,00.0,31.2,24.0,09.3,0000.0,0001.57,0000.96,0000.73
2022-02-11 11:18:00,,0821.0,5.01,0.00,22.3,21.6,00.0,31.2,24.0,09.4,0000.0,0001.90,0000.95,0000.73
2022-02-11 11:19:00,,0821.1,5.01,0.00,22.3,21.5,00.0,31.2,24.0,09.5,0000.0,0002.79,0000.92,0000.74
2022-02-11 11:20:00,,0821.1,5.00,0.00,22.3,21.6,00.0,31.2,24.0,09.3,0000.0,0002.83,0000.95,0000.75
2022-02-11 11:21:00,,0821.1,5.01,0.00,22.3,21.6,00.0,31.2,24.1,09.3,0000.0,0002.90,0000.98,0000.76
2022-02-11 11:22:00,,0821.1,4.99,0.00,22.3,21.6,00.0,31.2,24.0,09.4,0000.0,0002.86,0000.97,0000.76
2022-02-11 11:23:00,,0821.1,5.01,0.00,22.3,21.6,00.0,31.2,24.0,09.2,0000.0,0002.81,0000.96,0000.76
2022-02-11 11:24:00,,0821.2,4.99,0.00,22.3,21.6,00.0,31.2,24.0,09.3,0000.0,0002.67,0000.94,0000.76
2022-02-11 11:25:00,,0821.2,5.01,0.00,22.3,21.6,00.0,31.2,24.0,09.3,0000.0,0002.62,0000.93,0000.75
2022-02-11 11:26:00,,0821.3,4.99,0.00,22.3,21.6,00.0,31.2,24.1,09.4,0000.0,0002.66,0000.93,0000.75
2022-02-11 11:27:00,,0821.4,4.99,0.00,22.3,21.6,00.0,31.2,24.0,09.4,0000.0,0002.69,0000.93,0000.75
2022-02-11 11:28:00,,0821.4,5.01,0.00,22.3,21.6,00.0,31.2,24.0,09.4,0000.0,0002.68,0000.93,0000.75
2022-02-11 11:29:00,,0821.4,4.99,0.00,22.3,21.6,00.0,31.2,24.0,09.5,0000.0,0002.33,0000.94,0000.75
2022-02-11 11:30:00,,0821.5,5.01,0.00,22.3,21.6,00.0,31.2,24.0,09.6,0000.0,0001.41,0000.95,0000.74
2022-02-11 11:31:00,,0821.4,4.99,0.00,22.3,21.6,00.0,31.2,24.0,09.5,0000.0,0001.48,0000.96,0000.73
2022-02-11 11:32:00,,0821.4,5.00,0.00,22.2,21.5,00.0,31.2,24.0,09.4,0000.0,0001.42,0000.94,0000.73
2022-02-11 11:33:00,,0821.4,5.01,0.00,22.2,21.5,00.0,31.2,24.0,09.3,0000.0,0001.45,0000.95,0000.73
2022-02-11 11:34:00,,0821.5,5.00,0.00,22.2,21.5,00.0,31.2,24.0,09.4,0000.0,0001.53,0000.99,0000.72
2022-02-11 11:35:00,,0821.6,5.00,0.00,22.2,21.5,00.0,31.2,23.9,09.3,0000.0,0001.67,0001.01,0000.73
2022-02-11 11:36:00,,0821.7,4.99,0.00,22.2,21.5,00.0,31.2,23.9,09.3,0000.0,0001.62,0000.99,0000.74
2022-02-11 11:37:00,,0821.7,5.01,0.00,22.2,21.5,00.0,31.2,23.9,09.4,0000.0,0001.57,0000.99,0000.75
2022-02-11 11:38:00,,0821.7,4.98,0.00,22.2,21.5,00.0,31.2,23.9,09.4,0000.0,0001.51,0000.98,0000.75
2022-02-11 11:39:00,,0821.7,5.00,0.00,22.2,21.5,00.0,31.2,23.9,09.4,0000.0,0001.56,0001.00,0000.76
2022-02-11 11:40:00,,0821.8,5.00,0.00,22.2,21.5,00.0,31.2,23.9,09.5,0000.0,0001.64,0001.02,0000.77
2022-02-11 11:41:00,,0821.9,5.01,0.00,22.2,21.4,00.0,31.2,23.9,09.5,0000.0,0001.76,0001.04,0000.78
2022-02-11 11:42:00,,0822.1,5.01,0.00,22.2,21.4,00.0,31.2,23.9,09.5,0000.0,0001.76,0001.06,0000.79
2022-02-11 11:43:00,,0822.3,4.99,0.00,22.2,21.5,00.0,31.2,23.9,09.6,0000.0,0001.92,0001.08,0000.79
2022-02-11 11:44:00,,0822.6,5.01,0.00,22.2,21.5,00.0,31.2,24.0,09.6,0000.0,0001.95,0001.08,0000.79
2022-02-11 11:45:00,,0822.6,5.00,0.00,22.2,21.5,00.0,31.2,23.9,11.3,0000.0,0002.33,0001.11,0000.81
2022-02-11 11:46:00,,0822.7,4.99,0.00,22.1,21.4,00.0,31.2,23.9,14.4,0000.0,0004.08,0001.31,0000.90
2022-02-11 11:47:00,,0822.7,5.00,0.00,22.1,21.3,00.0,31.2,23.8,14.9,0000.0,0004.70,0001.53,0001.02
2022-02-11 11:48:00,,0822.7,5.01,0.00,22.0,21.2,00.0,31.2,23.7,15.0,0000.0,0006.02,0001.72,0001.11
2022-02-11 11:49:00,,0822.7,4.98,0.00,22.0,21.1,00.0,31.1,23.7,15.1,0000.0,0008.17,0001.95,0001.21
2022-02-11 11:50:00,,0822.8,5.01,0.00,22.0,21.1,00.0,31.1,23.6,15.2,0000.0,0008.98,0002.10,0001.31
2022-02-11 11:51:00,,0822.8,5.01,0.00,21.9,21.1,00.0,31.1,23.6,15.3,0000.0,0009.56,0002.33,0001.39
2022-02-11 11:52:00,,0823.0,5.01,0.00,21.9,21.1,00.0,31.1,23.6,15.4,0000.0,0010.08,0002.49,0001.47
2022-02-11 11:53:00,,0822.9,4.99,0.00,22.0,21.6,00.0,31.1,23.8,15.4,0000.0,0010.62,0002.66,0001.55
2022-02-11 11:54:00,,0823.0,5.00,0.00,22.1,22.4,00.0,31.2,24.0,15.3,0000.0,0011.52,0002.81,0001.63
2022-02-11 11:55:00,,0823.0,5.01,0.00,22.3,23.0,00.0,31.2,24.3,15.2,0000.0,0012.03,0002.96,0001.71
2022-02-11 11:56:00,,0823.0,5.00,0.00,22.3,22.8,00.0,31.2,24.3,15.1,0000.0,0012.24,0003.08,0001.76
2022-02-11 11:57:00,,0823.2,5.00,0.00,22.3,22.5,00.0,31.2,24.1,15.2,0000.0,0012.24,0002.98,0001.73
2022-02-11 11:58:00,,0823.3,4.99,0.00,22.2,22.2,00.0,31.2,24.0,15.2,0000.0,0012.56,0002.85,0001.68
2022-02-11 11:59:00,,0823.3,5.01,0.00,22.2,22.0,00.0,31.2,23.9,15.2,0000.0,0012.07,0002.77,0001.65
